Location: Asheville, NC
(35.6000°N, 82.5500°W)
Time: 04:50:47
(UTC-04:00)

Vanguard 3 - Pass Details

Date: 14 February 2018
Orbit: 508 x 3264 km, 33.4° (Epoch: 20 May)

Event Time Altitude Azimuth Distance (km) Brightness Sun altitude
Rises 20:17:55 0° 270° (W) 2,684 11.2 -26.3°
Reaches altitude 10° 20:19:50 10° 267° (W) 1,896 10.0 -26.7°
Enters shadow 20:23:33 63° 215° (SW) 798 7.1 -27.5°
